Regional Weather Roundup
Issued by NWS

Home | Current Version | Previous Version | Graphics & Text | Print | Product List | Glossary On
Versions: 1 2 3 4 5 6 7 8 9 10 11 12 13 14 15 16 17 18 19 20 21 22 23 24 25 26 27 28 29 30 31 32 33 34 35 36 37 38 39 40 41 42 43 44 45 46 47 48 49 50
000
ASUS43 KMKX 270100
RWRWI

WISCONSIN REGIONAL WEATHER ROUNDUP
NATIONAL WEATHER SERVICE MILWAUKEE/SULLIVAN WI
800 PM CDT WED APR 26 2017

NOTE: "FAIR" INDICATES FEW OR NO CLOUDS BELOW 12,000 FEET WITH NO
SIGNIFICANT WEATHER AND/OR OBSTRUCTIONS TO VISIBILITY.

WIZ001-002-006>008-014>016-023>028-270200-
NORTHWEST WISCONSIN

CITY           SKY/WX    TMP DP  RH WIND       PRES   REMARKS
SUPERIOR ARPT  CLOUDY    33  30  89 NE7       29.61R WCI  26
ASHLAND        CLOUDY    31  29  92 N16       29.60R WCI  20
HAYWARD        LGT SNOW  33  30  88 N9        29.56S FOG     WCI  25
SIREN          CLOUDY    34  31  88 NE6       29.58S WCI  29
CUMBERLAND     CLOUDY    34  32  93 N9        29.54S WCI  26
RICE LAKE      CLOUDY    36  33  88 N6        29.55R WCI  31
CHETEK         CLOUDY    37  34  90 N7        29.53S WCI  31
LADYSMITH      CLOUDY    35  33  90 N10G16    29.53R WCI  28
EAU CLAIRE     NOT AVBL
MENOMONIE      CLOUDY    39  36  87 NW9       29.53R WCI  33
NEW RICHMOND   CLOUDY    37  34  89 N10       29.55S WCI  29
OSCEOLA        CLOUDY    37  32  82 N10       29.59S WCI  30
$$

WIZ003>005-009-010-017-018-270200-
NORTH CENTRAL WISCONSIN

CITY           SKY/WX    TMP DP  RH WIND       PRES   REMARKS
MANITOWISH WTR CLOUDY    32  32 100 NW6       29.49S FOG     WCI  26
ARBOR VITAE    CLOUDY    37  35  96 N9        29.48R FOG     WCI  30
WOODRUFF       CLOUDY    37  35  96 N9        29.48R FOG     WCI  30
RHINELANDER    CLOUDY    39  38  96 NW8       29.47R FOG     WCI  33
EAGLE RIVER    CLOUDY    36  36 100 NW8       29.47R FOG     WCI  29
LAND O LAKES   CLOUDY    34  34  99 NW6       29.48R FOG     WCI  29
PHILLIPS       CLOUDY    33  33 100 NW8       29.50R WCI  26
TOMAHAWK       CLOUDY    37  35  96 NW7       29.48R FOG     WCI  31
MEDFORD        DRIZZLE   38  37  97 NW7       29.48R WCI  33
MERRILL        CLOUDY    42  42 100 NW6       29.47R FOG
$$

WIZ029-030-035-036-043>047-270200-
CENTRAL WISCONSIN

CITY           SKY/WX    TMP DP  RH WIND       PRES   REMARKS
WAUSAU         CLOUDY    44  43  96 W10       29.45S
MOSINEE        CLOUDY    43  41  93 W8        29.47S
MARSHFIELD     CLOUDY    41  38  89 NW12      29.49R
STEVENS POINT  CLOUDY    44  42  93 W8G16     29.47R
WAUPACA        LGT RAIN  52  49  89 W12       29.46R
WAUTOMA        CLOUDY    48  46  93 W13       29.48R
WISC RAPIDS    CLOUDY    45  43  93 NW10      29.50R
CAMP DOUGLAS   NOT AVBL
$$

WIZ011>013-019>022-031-037>040-048>050-270200-
NORTHEAST WISCONSIN

CITY           SKY/WX    TMP DP  RH WIND       PRES   REMARKS
ANTIGO         FOG       45  45 100 W10       29.45R VSB 1/2
SHAWANO        CLOUDY    58  53  84 W7        29.43R
OCONTO         PTCLDY    64  56  76 SW6       29.39R
STURGEON BAY   CLOUDY    62  56  80 S8        29.41S
GREEN BAY      CLOUDY    64  57  78 SW8       29.42R
MANITOWOC      NOT AVBL
APPLETON       CLOUDY    57  50  77 W13       29.42R
CLINTONVILLE   CLOUDY    52  50  93 W13       29.44R
OSHKOSH        CLOUDY    60  53  77 SW10      29.45R
$$

WIZ032>034-041-042-053>061-270200-
SOUTHWEST WISCONSIN

CITY           SKY/WX    TMP DP  RH WIND       PRES   REMARKS
LA CROSSE      CLOUDY    44  40  85 W10       29.52S
SPARTA         CLOUDY    43  40  91 W6        29.52R
VIROQUA        CLOUDY    42  40  95 W8        29.51S
BOSCOBEL       CLOUDY    48  43  82 W6        29.51F
PRAIRIE DU CHI CLOUDY    46  40  81 W9        29.52S
PLATTEVILLE    CLOUDY    48  48 100 W9        29.50F
$$

WIZ056-057-062-063-064-067-068-270200-
SOUTH CENTRAL WISCONSIN

CITY           SKY/WX    TMP DP  RH WIND       PRES   REMARKS
REEDSBURG      CLOUDY    49  49 100 W10       29.49R FOG
BARABOO/DELLS  CLOUDY    49  48  93 W8        29.48R FOG
LONE ROCK      NOT AVBL
MINERAL POINT  CLOUDY    48  48 100 W10       29.49F
MADISON        CLOUDY    53  49  86 SW7       29.47S
MIDDLETON      CLOUDY    54  50  87 W8G17     29.48S
WATERTOWN      LGT RAIN  56  56 100 SW9       29.46S
MONROE         CLOUDY    50  48  93 W12       29.48S
JANESVILLE     CLOUDY    55  54  94 W8        29.46F
$$

WIZ051-052-058>065-066-070>072-270200-
SOUTHEAST WISCONSIN

CITY           SKY/WX    TMP DP  RH WIND       PRES   REMARKS
MILWAUKEE      LGT RAIN  63  56  78 W10       29.46R
WAUKESHA       CLOUDY    57  54  88 SW8       29.47S
MILWAUKEE/TIMM CLOUDY    63  52  67 SW12      29.48R
RACINE         CLOUDY    64  55  72 VRB7      29.46F
KENOSHA        CLOUDY    62  54  74 SW9       29.46S
FOND DU LAC    LGT RAIN  60  53  77 SW7       29.45R
SHEBOYGAN      CLOUDY    63  57  81 SW14G23   29.45R
WEST BEND      CLOUDY    61  55  82 SW10G16   29.46R
JUNEAU         DRIZZLE   57  54  90 S9        29.47S
$$

LSZ147-162-270200-
LAKE SUPERIOR

STATION/POSITION TIME  TEMP    WIND        PRES    WAVE
                       AIR SEA DIR/SP/G            HT/PER
                 (UTC) (F)     (DEG/KT/KT) (MB)    (FT/S)
DEVILS ISLAND    0000   31      10/ 17/ 20 1003.3R
PORT WING        2340   33      20/ 19/ 21 1002.4R
SAXON HARBOR     0030   33      30/ 19/ 22 1002.0R
$$

LMZ867-665-643>646-270200-
LAKE MICHIGAN

STATION/POSITION TIME  TEMP    WIND        PRES    WAVE
                       AIR SEA DIR/SP/G            HT/PER
                 (UTC) (F)     (DEG/KT/KT) (MB)    (FT/S)
CHAMBERS ISLAND  0030   57     160/  2/  6  995.3F
N MID LAKE BUOY  2350   42 37  180/ 12/ 14  997.8R   2/ 4
NORTHPORT PIER   0040   49     150/  2/  4  995.9S
KEWAUNEE LAKESHO 0030   51     160/  9/ 12  995.9R
SHEBOYGAN LAKESH 0000   54     180/ 11/ 12  996.3F
PORT WASHINGTON  0030   66     210/  6/ 14  998.3R
MILWAUKEE LAKESH 0030   65     240/ 20/ 23   N/A
S MID LAKE BUOY  2350   50 42  160/  8/  8  998.1F   1
KENOSHA   LAKESH 0000   67     240/  8/ 11  997.6
$$

TC  - TEMPERATURE IN CELSIUS
VSB - VISIBILITY IN STATUTE MILES
WCI - WIND CHILL INDEX
HX  - HEAT INDEX





USA.gov is the U.S. government's official web portal to all federal, state and local government web resources and services.